SL-14 DEB, 47090

Orbit data source: Space-Track

SL-14 DEB, 47090 is space debris in LEO originally from a launch on Thu, 15 Aug 1991 UTC launched from the Plesetsk Missile And Space Complex (PKMTR). Debris objects in space refer to the collection of defunct objects orbiting the Earth. Examples of debris include non-operational satellites, rocket bodies, and fragments generated from explosions, collisions, or faulty payload assembly.

Loading next visibility...
Identifier
47090, 1991-056DQ
Orbit
LEO
Country
Flag of CISCIS
Related business
Manufacturer
Unknown
Mission
Spacecraft
Bus & Motor
Unknown
Mass
Unknown
Launch date (UTC)
1991-08-15 (34 years ago)
Launch vehicle
Unknown
Launch site
Plesetsk Missile And Space Complex (PKMTR)
Object type
Payload
Rocket body
Debris
Shape & HBR
Unknown shape, 0.1 m
Radar Cross Section
Small (<0.1 m²)

Expand to show TLE details & history
Last TLE update: 1 week ago

TLE from 1 week ago
0 SL-14 DEB
1 47090U 91056DQ  26028.24359577  .00006457  00000-0  11087-1 0  9991
2 47090  82.6259 216.6578 0092540 194.9236 164.9168 13.42624924254477
Epoch: 2026-01-28T05:50Z
TLE epoch observation values (Epoch: 2026-01-28T05:50:46.674Z)
Latitude
0.00001°
Longitude
1.44989°
Altitude
1,169.232 km
Speed
7.236 km/s
True Right ascension
14h 26m 37s
True Declination
0° 00' 00"
Sunlit
Object was in daylight at epoch
Visualization orbit readout
Latitude
Unknown
Longitude
Unknown
Altitude
Unknown
Speed
Unknown
Apparent Right ascension
Unknown
Apparent Declination
Unknown
Sunlit
N/A
Visualization observer readout
Local Sidereal Time
05:38:43
Azimuth
Unknown
Elevation
Unknown
Doppler factor
Unknown
Orbital elements
Apogee altitude
1,165.895 km
Perigee altitude
1,027.55 km
Semi-major axis
7,474.86 km
Eccentricity
0.00925
Inclination
82.6259°
RAAN
216.6578°
Arg. of periapsis
194.9236°
True anomaly
165.1897°
Mean anomaly
164.9168°
Eccentric anomaly
165.05355°
Mean motion
3.35845 °/min
Orbital period
107.19 mins
BSTAR
0.011087
Loading maneuver chart data...
Computing Atmospheric mass density...
Loading historical data...
Loading historical data...
Loading historical data...
Loading historical data...
Loading historical data...
Loading historical data...
Loading historical data...

Documentation

Showing up to 5 results
|